Find Starlink 37981

NORAD ID: 100282 Int'l Des: 2026-183 Owner: SPXS Country: US Constellation: starlink operational

現在のビュー

3D地球を読み込み中...

About Starlink 37981

Starlink 37981 (NORAD 100282) is a starlink constellation satellite launched Aug 11, 2026 by SPXS of US. with a mass of 575.00 kg.

次回通過

Passes for default location (London). Set your location on the main map for personalized predictions.

高度履歴

Loading altitude history...

軌道要素

1 A0282U 26183L 26249.37985374 .00143488 00000-0 92495-3 0 9991
2 A0282 53.1608 327.1580 0001223 91.2598 268.8562 15.75225622 4081
Epoch: Sep 6, 2026 • Age: 12 hours

現在のステータス

高度 352.5 km
遠地点 / 近地点 N/A
速度 7.70 km/s
衛星直下点 -28.01°S, 1.84°W
打ち上げ日 Aug 11, 2026
運用期間 26 days
タイプ internet

技術仕様

分類 Payload
質量 575.00 kg
乾燥質量 530.00 kg
総質量 575.00 kg
長さ 0.30 m
直径 4.10 m
スパン 29.00 m
形状 Box + pan
製造者 SPXS
バスタイプ Starlink V2MO
フェーズステータス In Orbit
所有者/国 SPXS/US

Most Searched